PWSweather.com
Personal Weather Stations
Station Observations
K4FB1
Clubhouse Heritage, Lakeland, FL 33812

Clubhouse HeritageLakeland, FL 33812

Lat: 27.969224, Lon: -81.897769

Elevation: 145

Station Type: Davis Vantage Pro2

http://www.ClubhouseWX.com

Latest ConditionsUpdated 9:30:00 AM EDT Saturday, Mar 25, 2017
Currently Today's Max Today's Min Today's Average
Temperature 69.0°F20.6°C 69.0°F20.6°C 55.7°F13.2°C 60.4°F15.8°C
Dew Point 62.2°F16.8°C 62.5°F16.9°C 53.4°F11.9°C 57.1°F13.9°C
Winds 3.0 mph E4.8 kmh E 4.0 mph SE6.4 kmh SE - 0.7 mph 1.1 kmh
Wind Gusts 7.0 mph11.3 kmh 9.0 mph14.5 kmh - -
Humidity 79% 94% 79% 89%
Pressure 30.22 in1023.4 mb 30.25 in1024.4 mb 30.17 in1021.7 mb -
Hour Temp Dew Point Humidity Winds Wind Gusts Pressure Precip Precip Rate Daily Precip Total
09:30 AM 69.0°F20.6°C 62.2°F16.8°C 79% 3.0 mph E4.8 kmh E 7.0 mph11.3 kmh 30.22 in1023.4 mb 0.00 in0.0 mm 0.00 in0.0 mm 0.00 in0.0 mm
09:25 AM 68.9°F20.5°C 62.5°F16.9°C 80% 2.0 mph E3.2 kmh E 7.0 mph11.3 kmh 30.21 in1023.0 mb 0.00 in0.0 mm 0.00 in0.0 mm 0.00 in0.0 mm
09:20 AM 68.8°F20.4°C 62.4°F16.9°C 80% 2.0 mph ESE3.2 kmh ESE 5.0 mph8.0 kmh 30.21 in1023.0 mb 0.00 in0.0 mm 0.00 in0.0 mm 0.00 in0.0 mm
09:15 AM 68.5°F20.3°C 62.4°F16.9°C 81% 3.0 mph SE4.8 kmh SE 8.0 mph12.9 kmh 30.21 in1023.0 mb 0.00 in0.0 mm 0.00 in0.0 mm 0.00 in0.0 mm
09:10 AM 67.9°F19.9°C 62.2°F16.8°C 82% 4.0 mph SE6.4 kmh SE 9.0 mph14.5 kmh 30.21 in1023.0 mb 0.00 in0.0 mm 0.00 in0.0 mm 0.00 in0.0 mm
09:05 AM 67.1°F19.5°C 62.4°F16.9°C 85% 3.0 mph ESE4.8 kmh ESE 9.0 mph14.5 kmh 30.20 in1022.7 mb 0.00 in0.0 mm 0.00 in0.0 mm 0.00 in0.0 mm
09:00 AM 66.2°F19.0°C 62.5°F16.9°C 88% 3.0 mph ESE4.8 kmh ESE 7.0 mph11.3 kmh 30.20 in1022.7 mb 0.00 in0.0 mm 0.00 in0.0 mm 0.00 in0.0 mm
08:55 AM 65.2°F18.4°C 61.9°F16.6°C 89% 3.0 mph ESE4.8 kmh ESE 7.0 mph11.3 kmh 30.20 in1022.7 mb 0.00 in0.0 mm 0.00 in0.0 mm 0.00 in0.0 mm
08:50 AM 64.1°F17.8°C 61.4°F16.3°C 91% 2.0 mph ESE3.2 kmh ESE 7.0 mph11.3 kmh 30.20 in1022.7 mb 0.00 in0.0 mm 0.00 in0.0 mm 0.00 in0.0 mm
08:45 AM 63.2°F17.3°C 60.8°F16.0°C 92% 1.0 mph ESE1.6 kmh ESE 4.0 mph6.4 kmh 30.20 in1022.7 mb 0.00 in0.0 mm 0.00 in0.0 mm 0.00 in0.0 mm
08:40 AM 62.5°F16.9°C 60.1°F15.6°C 92% 2.0 mph ESE3.2 kmh ESE 4.0 mph6.4 kmh 30.20 in1022.7 mb 0.00 in0.0 mm 0.00 in0.0 mm 0.00 in0.0 mm
08:35 AM 62.2°F16.8°C 59.8°F15.4°C 92% 2.0 mph ESE3.2 kmh ESE 4.0 mph6.4 kmh 30.20 in1022.7 mb 0.00 in0.0 mm 0.00 in0.0 mm 0.00 in0.0 mm
08:30 AM 62.0°F16.7°C 59.6°F15.3°C 92% 2.0 mph ESE3.2 kmh ESE 4.0 mph6.4 kmh 30.20 in1022.7 mb 0.00 in0.0 mm 0.00 in0.0 mm 0.00 in0.0 mm
08:25 AM 61.9°F16.6°C 59.5°F15.3°C 92% 2.0 mph ESE3.2 kmh ESE 4.0 mph6.4 kmh 30.19 in1022.4 mb 0.00 in0.0 mm 0.00 in0.0 mm 0.00 in0.0 mm
08:20 AM 61.7°F16.5°C 59.4°F15.2°C 92% 2.0 mph ESE3.2 kmh ESE 4.0 mph6.4 kmh 30.19 in1022.4 mb 0.00 in0.0 mm 0.00 in0.0 mm 0.00 in0.0 mm
08:15 AM 61.6°F16.4°C 59.3°F15.2°C 92% 2.0 mph ESE3.2 kmh ESE 5.0 mph8.0 kmh 30.19 in1022.4 mb 0.00 in0.0 mm 0.00 in0.0 mm 0.00 in0.0 mm
08:10 AM 61.4°F16.3°C 59.4°F15.2°C 93% 2.0 mph SE3.2 kmh SE 5.0 mph8.0 kmh 30.19 in1022.4 mb 0.00 in0.0 mm 0.00 in0.0 mm 0.00 in0.0 mm
08:05 AM 61.2°F16.2°C 59.2°F15.1°C 93% 1.0 mph ESE1.6 kmh ESE 4.0 mph6.4 kmh 30.19 in1022.4 mb 0.00 in0.0 mm 0.00 in0.0 mm 0.00 in0.0 mm
08:00 AM 61.1°F16.2°C 59.1°F15.1°C 93% 2.0 mph SE3.2 kmh SE 5.0 mph8.0 kmh 30.19 in1022.4 mb 0.00 in0.0 mm 0.00 in0.0 mm 0.00 in0.0 mm
07:55 AM 61.0°F16.1°C 59.0°F15.0°C 93% 2.0 mph SE3.2 kmh SE 5.0 mph8.0 kmh 30.18 in1022.0 mb 0.00 in0.0 mm 0.00 in0.0 mm 0.00 in0.0 mm
07:50 AM 60.8°F16.0°C 58.8°F14.9°C 93% 2.0 mph ESE3.2 kmh ESE 4.0 mph6.4 kmh 30.18 in1022.0 mb 0.00 in0.0 mm 0.00 in0.0 mm 0.00 in0.0 mm
07:45 AM 60.7°F15.9°C 58.7°F14.8°C 93% 1.0 mph ESE1.6 kmh ESE 4.0 mph6.4 kmh 30.18 in1022.0 mb 0.00 in0.0 mm 0.00 in0.0 mm 0.00 in0.0 mm
07:40 AM 60.6°F15.9°C 58.6°F14.8°C 93% 1.0 mph ESE1.6 kmh ESE 4.0 mph6.4 kmh 30.18 in1022.0 mb 0.00 in0.0 mm 0.00 in0.0 mm 0.00 in0.0 mm
07:35 AM 60.5°F15.8°C 58.5°F14.7°C 93% 2.0 mph ESE3.2 kmh ESE 4.0 mph6.4 kmh 30.18 in1022.0 mb 0.00 in0.0 mm 0.00 in0.0 mm 0.00 in0.0 mm
07:30 AM 60.5°F15.8°C 58.8°F14.9°C 94% 2.0 mph ESE3.2 kmh ESE 5.0 mph8.0 kmh 30.18 in1022.0 mb 0.00 in0.0 mm 0.00 in0.0 mm 0.00 in0.0 mm
07:25 AM 60.3°F15.7°C 58.6°F14.8°C 94% 1.0 mph ESE1.6 kmh ESE 5.0 mph8.0 kmh 30.18 in1022.0 mb 0.00 in0.0 mm 0.00 in0.0 mm 0.00 in0.0 mm
07:20 AM 60.1°F15.6°C 58.4°F14.7°C 94% 1.0 mph ESE1.6 kmh ESE 4.0 mph6.4 kmh 30.18 in1022.0 mb 0.00 in0.0 mm 0.00 in0.0 mm 0.00 in0.0 mm
07:15 AM 59.9°F15.5°C 58.2°F14.6°C 94% 1.0 mph SE1.6 kmh SE 3.0 mph4.8 kmh 30.18 in1022.0 mb 0.00 in0.0 mm 0.00 in0.0 mm 0.00 in0.0 mm
07:10 AM 59.6°F15.3°C 57.9°F14.4°C 94% 1.0 mph SE1.6 kmh SE 3.0 mph4.8 kmh 30.18 in1022.0 mb 0.00 in0.0 mm 0.00 in0.0 mm 0.00 in0.0 mm
07:05 AM 59.3°F15.2°C 57.6°F14.2°C 94% 1.0 mph ESE1.6 kmh ESE 3.0 mph4.8 kmh 30.18 in1022.0 mb 0.00 in0.0 mm 0.00 in0.0 mm 0.00 in0.0 mm
07:00 AM 59.0°F15.0°C 57.3°F14.1°C 94% Calm Calm 2.0 mph3.2 kmh 30.17 in1021.7 mb 0.00 in0.0 mm 0.00 in0.0 mm 0.00 in0.0 mm
06:55 AM 58.7°F14.8°C 57.0°F13.9°C 94% Calm Calm 3.0 mph4.8 kmh 30.17 in1021.7 mb 0.00 in0.0 mm 0.00 in0.0 mm 0.00 in0.0 mm
06:50 AM 58.4°F14.7°C 56.7°F13.7°C 94% Calm Calm 3.0 mph4.8 kmh 30.17 in1021.7 mb 0.00 in0.0 mm 0.00 in0.0 mm 0.00 in0.0 mm
06:45 AM 58.0°F14.4°C 56.0°F13.3°C 93% Calm Calm 2.0 mph3.2 kmh 30.18 in1022.0 mb 0.00 in0.0 mm 0.00 in0.0 mm 0.00 in0.0 mm
06:40 AM 57.8°F14.3°C 55.8°F13.2°C 93% Calm Calm 1.0 mph1.6 kmh 30.18 in1022.0 mb 0.00 in0.0 mm 0.00 in0.0 mm 0.00 in0.0 mm
06:35 AM 57.7°F14.3°C 55.7°F13.2°C 93% Calm Calm 1.0 mph1.6 kmh 30.17 in1021.7 mb 0.00 in0.0 mm 0.00 in0.0 mm 0.00 in0.0 mm
06:30 AM 57.7°F14.3°C 55.7°F13.2°C 93% Calm Calm 2.0 mph3.2 kmh 30.17 in1021.7 mb 0.00 in0.0 mm 0.00 in0.0 mm 0.00 in0.0 mm
06:25 AM 57.5°F14.2°C 55.5°F13.1°C 93% Calm Calm 2.0 mph3.2 kmh 30.17 in1021.7 mb 0.00 in0.0 mm 0.00 in0.0 mm 0.00 in0.0 mm
06:20 AM 57.2°F14.0°C 55.2°F12.9°C 93% Calm Calm -- 30.17 in1021.7 mb 0.00 in0.0 mm 0.00 in0.0 mm 0.00 in0.0 mm
06:15 AM 57.0°F13.9°C 55.0°F12.8°C 93% Calm Calm 1.0 mph1.6 kmh 30.17 in1021.7 mb 0.00 in0.0 mm 0.00 in0.0 mm 0.00 in0.0 mm
06:10 AM 56.9°F13.8°C 54.9°F12.7°C 93% Calm Calm 1.0 mph1.6 kmh 30.17 in1021.7 mb 0.00 in0.0 mm 0.00 in0.0 mm 0.00 in0.0 mm
06:05 AM 56.8°F13.8°C 54.8°F12.7°C 93% Calm Calm -- 30.17 in1021.7 mb 0.00 in0.0 mm 0.00 in0.0 mm 0.00 in0.0 mm
06:00 AM 56.7°F13.7°C 54.7°F12.6°C 93% Calm Calm 2.0 mph3.2 kmh 30.17 in1021.7 mb 0.00 in0.0 mm 0.00 in0.0 mm 0.00 in0.0 mm
05:55 AM 56.4°F13.6°C 54.4°F12.4°C 93% Calm Calm 2.0 mph3.2 kmh 30.17 in1021.7 mb 0.00 in0.0 mm 0.00 in0.0 mm 0.00 in0.0 mm
05:50 AM 56.3°F13.5°C 54.3°F12.4°C 93% Calm Calm -- 30.17 in1021.7 mb 0.00 in0.0 mm 0.00 in0.0 mm 0.00 in0.0 mm
05:45 AM 56.0°F13.3°C 54.0°F12.2°C 93% Calm Calm -- 30.17 in1021.7 mb 0.00 in0.0 mm 0.00 in0.0 mm 0.00 in0.0 mm
05:40 AM 55.8°F13.2°C 53.5°F11.9°C 92% Calm Calm -- 30.17 in1021.7 mb 0.00 in0.0 mm 0.00 in0.0 mm 0.00 in0.0 mm
05:35 AM 55.7°F13.2°C 53.4°F11.9°C 92% Calm Calm -- 30.17 in1021.7 mb 0.00 in0.0 mm 0.00 in0.0 mm 0.00 in0.0 mm
05:30 AM 55.8°F13.2°C 53.5°F11.9°C 92% Calm Calm -- 30.18 in1022.0 mb 0.00 in0.0 mm 0.00 in0.0 mm 0.00 in0.0 mm
05:25 AM 55.8°F13.2°C 53.5°F11.9°C 92% Calm Calm -- 30.18 in1022.0 mb 0.00 in0.0 mm 0.00 in0.0 mm 0.00 in0.0 mm
05:20 AM 55.9°F13.3°C 53.6°F12.0°C 92% Calm Calm -- 30.18 in1022.0 mb 0.00 in0.0 mm 0.00 in0.0 mm 0.00 in0.0 mm
05:15 AM 55.9°F13.3°C 53.6°F12.0°C 92% Calm Calm -- 30.18 in1022.0 mb 0.00 in0.0 mm 0.00 in0.0 mm 0.00 in0.0 mm
05:10 AM 56.0°F13.3°C 53.7°F12.1°C 92% Calm Calm -- 30.18 in1022.0 mb 0.00 in0.0 mm 0.00 in0.0 mm 0.00 in0.0 mm
05:05 AM 56.1°F13.4°C 53.8°F12.1°C 92% Calm Calm -- 30.18 in1022.0 mb 0.00 in0.0 mm 0.00 in0.0 mm 0.00 in0.0 mm
05:00 AM 56.3°F13.5°C 54.0°F12.2°C 92% Calm Calm -- 30.19 in1022.4 mb 0.00 in0.0 mm 0.00 in0.0 mm 0.00 in0.0 mm
04:55 AM 56.4°F13.6°C 54.1°F12.3°C 92% Calm Calm -- 30.19 in1022.4 mb 0.00 in0.0 mm 0.00 in0.0 mm 0.00 in0.0 mm
04:50 AM 56.6°F13.7°C 54.3°F12.4°C 92% Calm Calm -- 30.19 in1022.4 mb 0.00 in0.0 mm 0.00 in0.0 mm 0.00 in0.0 mm
04:45 AM 56.7°F13.7°C 54.4°F12.4°C 92% Calm Calm -- 30.19 in1022.4 mb 0.00 in0.0 mm 0.00 in0.0 mm 0.00 in0.0 mm
04:40 AM 56.8°F13.8°C 54.5°F12.5°C 92% Calm Calm -- 30.19 in1022.4 mb 0.00 in0.0 mm 0.00 in0.0 mm 0.00 in0.0 mm
04:35 AM 56.9°F13.8°C 54.6°F12.6°C 92% Calm Calm -- 30.19 in1022.4 mb 0.00 in0.0 mm 0.00 in0.0 mm 0.00 in0.0 mm
04:30 AM 57.0°F13.9°C 54.7°F12.6°C 92% Calm Calm 1.0 mph1.6 kmh 30.19 in1022.4 mb 0.00 in0.0 mm 0.00 in0.0 mm 0.00 in0.0 mm
04:25 AM 57.1°F13.9°C 54.8°F12.7°C 92% Calm Calm 1.0 mph1.6 kmh 30.19 in1022.4 mb 0.00 in0.0 mm 0.00 in0.0 mm 0.00 in0.0 mm
04:20 AM 57.1°F13.9°C 54.8°F12.7°C 92% Calm Calm -- 30.19 in1022.4 mb 0.00 in0.0 mm 0.00 in0.0 mm 0.00 in0.0 mm
04:15 AM 57.1°F13.9°C 54.8°F12.7°C 92% Calm Calm -- 30.20 in1022.7 mb 0.00 in0.0 mm 0.00 in0.0 mm 0.00 in0.0 mm
04:10 AM 57.1°F13.9°C 54.8°F12.7°C 92% Calm Calm -- 30.20 in1022.7 mb 0.00 in0.0 mm 0.00 in0.0 mm 0.00 in0.0 mm
04:05 AM 57.1°F13.9°C 54.5°F12.5°C 91% Calm Calm -- 30.20 in1022.7 mb 0.00 in0.0 mm 0.00 in0.0 mm 0.00 in0.0 mm
04:00 AM 57.1°F13.9°C 54.5°F12.5°C 91% Calm Calm 1.0 mph1.6 kmh 30.20 in1022.7 mb 0.00 in0.0 mm 0.00 in0.0 mm 0.00 in0.0 mm
03:55 AM 57.1°F13.9°C 54.5°F12.5°C 91% Calm Calm 1.0 mph1.6 kmh 30.20 in1022.7 mb 0.00 in0.0 mm 0.00 in0.0 mm 0.00 in0.0 mm
03:50 AM 57.1°F13.9°C 54.5°F12.5°C 91% Calm Calm -- 30.20 in1022.7 mb 0.00 in0.0 mm 0.00 in0.0 mm 0.00 in0.0 mm
03:45 AM 57.2°F14.0°C 54.6°F12.6°C 91% Calm Calm -- 30.20 in1022.7 mb 0.00 in0.0 mm 0.00 in0.0 mm 0.00 in0.0 mm
03:40 AM 57.3°F14.1°C 54.7°F12.6°C 91% Calm Calm -- 30.20 in1022.7 mb 0.00 in0.0 mm 0.00 in0.0 mm 0.00 in0.0 mm
03:35 AM 57.4°F14.1°C 54.8°F12.7°C 91% Calm Calm -- 30.21 in1023.0 mb 0.00 in0.0 mm 0.00 in0.0 mm 0.00 in0.0 mm
03:30 AM 57.5°F14.2°C 54.9°F12.7°C 91% Calm Calm -- 30.21 in1023.0 mb 0.00 in0.0 mm 0.00 in0.0 mm 0.00 in0.0 mm
03:25 AM 57.5°F14.2°C 54.9°F12.7°C 91% Calm Calm -- 30.21 in1023.0 mb 0.00 in0.0 mm 0.00 in0.0 mm 0.00 in0.0 mm
03:20 AM 57.6°F14.2°C 54.7°F12.6°C 90% Calm Calm -- 30.21 in1023.0 mb 0.00 in0.0 mm 0.00 in0.0 mm 0.00 in0.0 mm
03:15 AM 57.7°F14.3°C 54.8°F12.7°C 90% Calm Calm -- 30.21 in1023.0 mb 0.00 in0.0 mm 0.00 in0.0 mm 0.00 in0.0 mm
03:10 AM 57.7°F14.3°C 54.8°F12.7°C 90% Calm Calm -- 30.21 in1023.0 mb 0.00 in0.0 mm 0.00 in0.0 mm 0.00 in0.0 mm
03:05 AM 57.8°F14.3°C 54.9°F12.7°C 90% Calm Calm -- 30.21 in1023.0 mb 0.00 in0.0 mm 0.00 in0.0 mm 0.00 in0.0 mm
03:00 AM 58.0°F14.4°C 55.1°F12.8°C 90% Calm Calm -- 30.21 in1023.0 mb 0.00 in0.0 mm 0.00 in0.0 mm 0.00 in0.0 mm
02:55 AM 58.1°F14.5°C 54.9°F12.7°C 89% Calm Calm -- 30.21 in1023.0 mb 0.00 in0.0 mm 0.00 in0.0 mm 0.00 in0.0 mm
02:50 AM 58.3°F14.6°C 55.1°F12.8°C 89% Calm Calm 1.0 mph1.6 kmh 30.21 in1023.0 mb 0.00 in0.0 mm 0.00 in0.0 mm 0.00 in0.0 mm
02:45 AM 58.5°F14.7°C 55.3°F12.9°C 89% Calm Calm 1.0 mph1.6 kmh 30.22 in1023.4 mb 0.00 in0.0 mm 0.00 in0.0 mm 0.00 in0.0 mm
02:40 AM 58.7°F14.8°C 55.5°F13.1°C 89% Calm Calm -- 30.22 in1023.4 mb 0.00 in0.0 mm 0.00 in0.0 mm 0.00 in0.0 mm
02:35 AM 58.9°F14.9°C 55.4°F13.0°C 88% Calm Calm -- 30.22 in1023.4 mb 0.00 in0.0 mm 0.00 in0.0 mm 0.00 in0.0 mm
02:30 AM 59.2°F15.1°C 55.3°F12.9°C 87% Calm Calm -- 30.22 in1023.4 mb 0.00 in0.0 mm 0.00 in0.0 mm 0.00 in0.0 mm
02:25 AM 59.6°F15.3°C 55.7°F13.2°C 87% Calm Calm -- 30.22 in1023.4 mb 0.00 in0.0 mm 0.00 in0.0 mm 0.00 in0.0 mm
02:20 AM 59.9°F15.5°C 56.0°F13.3°C 87% Calm Calm -- 30.22 in1023.4 mb 0.00 in0.0 mm 0.00 in0.0 mm 0.00 in0.0 mm
02:15 AM 60.3°F15.7°C 56.1°F13.4°C 86% Calm Calm -- 30.23 in1023.7 mb 0.00 in0.0 mm 0.00 in0.0 mm 0.00 in0.0 mm
02:10 AM 60.6°F15.9°C 56.4°F13.6°C 86% Calm Calm -- 30.23 in1023.7 mb 0.00 in0.0 mm 0.00 in0.0 mm 0.00 in0.0 mm
02:05 AM 61.0°F16.1°C 56.5°F13.6°C 85% Calm Calm 1.0 mph1.6 kmh 30.23 in1023.7 mb 0.00 in0.0 mm 0.00 in0.0 mm 0.00 in0.0 mm
02:00 AM 61.3°F16.3°C 56.8°F13.8°C 85% Calm Calm 1.0 mph1.6 kmh 30.23 in1023.7 mb 0.00 in0.0 mm 0.00 in0.0 mm 0.00 in0.0 mm
01:55 AM 61.8°F16.6°C 57.2°F14.0°C 85% Calm Calm 1.0 mph1.6 kmh 30.23 in1023.7 mb 0.00 in0.0 mm 0.00 in0.0 mm 0.00 in0.0 mm
01:50 AM 62.2°F16.8°C 57.6°F14.2°C 85% Calm Calm 1.0 mph1.6 kmh 30.23 in1023.7 mb 0.00 in0.0 mm 0.00 in0.0 mm 0.00 in0.0 mm
01:45 AM 62.5°F16.9°C 57.6°F14.2°C 84% Calm Calm 1.0 mph1.6 kmh 30.23 in1023.7 mb 0.00 in0.0 mm 0.00 in0.0 mm 0.00 in0.0 mm
01:40 AM 62.8°F17.1°C 57.9°F14.4°C 84% Calm Calm 1.0 mph1.6 kmh 30.23 in1023.7 mb 0.00 in0.0 mm 0.00 in0.0 mm 0.00 in0.0 mm
01:35 AM 63.1°F17.3°C 58.2°F14.6°C 84% Calm Calm 1.0 mph1.6 kmh 30.24 in1024.0 mb 0.00 in0.0 mm 0.00 in0.0 mm 0.00 in0.0 mm
01:30 AM 63.4°F17.4°C 58.1°F14.5°C 83% Calm Calm 2.0 mph3.2 kmh 30.24 in1024.0 mb 0.00 in0.0 mm 0.00 in0.0 mm 0.00 in0.0 mm
01:25 AM 63.7°F17.6°C 58.4°F14.7°C 83% Calm Calm 2.0 mph3.2 kmh 30.24 in1024.0 mb 0.00 in0.0 mm 0.00 in0.0 mm 0.00 in0.0 mm
01:20 AM 64.0°F17.8°C 58.7°F14.8°C 83% 1.0 mph SE1.6 kmh SE 2.0 mph3.2 kmh 30.24 in1024.0 mb 0.00 in0.0 mm 0.00 in0.0 mm 0.00 in0.0 mm
01:15 AM 64.2°F17.9°C 58.9°F14.9°C 83% 1.0 mph SE1.6 kmh SE 3.0 mph4.8 kmh 30.24 in1024.0 mb 0.00 in0.0 mm 0.00 in0.0 mm 0.00 in0.0 mm
01:10 AM 64.4°F18.0°C 59.1°F15.1°C 83% 1.0 mph SE1.6 kmh SE 5.0 mph8.0 kmh 30.25 in1024.4 mb 0.00 in0.0 mm 0.00 in0.0 mm 0.00 in0.0 mm
01:05 AM 64.5°F18.1°C 59.2°F15.1°C 83% 2.0 mph SE3.2 kmh SE 5.0 mph8.0 kmh 30.24 in1024.0 mb 0.00 in0.0 mm 0.00 in0.0 mm 0.00 in0.0 mm
01:00 AM 64.6°F18.1°C 59.0°F15.0°C 82% 1.0 mph ESE1.6 kmh ESE 4.0 mph6.4 kmh 30.25 in1024.4 mb 0.00 in0.0 mm 0.00 in0.0 mm 0.00 in0.0 mm
12:55 AM 64.7°F18.2°C 59.1°F15.1°C 82% 1.0 mph ESE1.6 kmh ESE 5.0 mph8.0 kmh 30.25 in1024.4 mb 0.00 in0.0 mm 0.00 in0.0 mm 0.00 in0.0 mm
12:50 AM 64.8°F18.2°C 59.2°F15.1°C 82% 1.0 mph E1.6 kmh E 5.0 mph8.0 kmh 30.25 in1024.4 mb 0.00 in0.0 mm 0.00 in0.0 mm 0.00 in0.0 mm
12:45 AM 65.0°F18.3°C 59.4°F15.2°C 82% 1.0 mph E1.6 kmh E 5.0 mph8.0 kmh 30.25 in1024.4 mb 0.00 in0.0 mm 0.00 in0.0 mm 0.00 in0.0 mm
12:40 AM 65.1°F18.4°C 59.1°F15.1°C 81% 1.0 mph E1.6 kmh E 4.0 mph6.4 kmh 30.25 in1024.4 mb 0.00 in0.0 mm 0.00 in0.0 mm 0.00 in0.0 mm
12:35 AM 65.3°F18.5°C 59.3°F15.2°C 81% 1.0 mph E1.6 kmh E 4.0 mph6.4 kmh 30.25 in1024.4 mb 0.00 in0.0 mm 0.00 in0.0 mm 0.00 in0.0 mm
12:30 AM 65.4°F18.6°C 59.4°F15.2°C 81% 2.0 mph ENE3.2 kmh ENE 5.0 mph8.0 kmh 30.25 in1024.4 mb 0.00 in0.0 mm 0.00 in0.0 mm 0.00 in0.0 mm
12:25 AM 65.5°F18.6°C 59.5°F15.3°C 81% 3.0 mph E4.8 kmh E 7.0 mph11.3 kmh 30.25 in1024.4 mb 0.00 in0.0 mm 0.00 in0.0 mm 0.00 in0.0 mm
12:20 AM 65.6°F18.7°C 59.6°F15.3°C 81% 2.0 mph E3.2 kmh E 7.0 mph11.3 kmh 30.25 in1024.4 mb 0.00 in0.0 mm 0.00 in0.0 mm 0.00 in0.0 mm
12:15 AM 65.7°F18.7°C 59.4°F15.2°C 80% 2.0 mph ENE3.2 kmh ENE 7.0 mph11.3 kmh 30.25 in1024.4 mb 0.00 in0.0 mm 0.00 in0.0 mm 0.00 in0.0 mm
12:10 AM 65.9°F18.8°C 59.6°F15.3°C 80% 2.0 mph ENE3.2 kmh ENE 5.0 mph8.0 kmh 30.25 in1024.4 mb 0.00 in0.0 mm 0.00 in0.0 mm 0.00 in0.0 mm
12:05 AM 66.0°F18.9°C 59.7°F15.4°C 80% 3.0 mph ENE4.8 kmh ENE 8.0 mph12.9 kmh 30.25 in1024.4 mb 0.00 in0.0 mm 0.00 in0.0 mm 0.00 in0.0 mm
12:00 AM 66.1°F18.9°C 59.7°F15.4°C 80% 3.0 mph ENE4.8 kmh ENE 8.0 mph12.9 kmh 30.25 in1024.4 mb 0.00 in0.0 mm 0.00 in0.0 mm 0.00 in0.0 mm